Location: St. Louis
(38.6270°N, 90.1994°W)
Time: 14:13:47
(UTC-06:00)

Vanguard 1 - Pass Details

Date: 02 December 2021
Orbit: 652 x 3830 km, 34.2° (Epoch: 19 January)

Event Time Altitude Azimuth Distance (km) Brightness Sun altitude
Rises 22:23:00 0° 217° (SW) 6,712 14.3 -65.0°
Reaches altitude 10° 22:27:15 10° 211° (SSW) 6,035 14.0 -65.7°
Enters shadow 22:27:34 11° 211° (SSW) 5,987 13.9 -65.8°
Maximum altitude 22:46:33 48° 145° (SE) 4,513 - -68.6°
Drops below altitude 10° 23:07:22 10° 80° (E) 6,504 - -71.1°
Exits shadow 23:09:15 - 78° (ENE) 6,795 14.2 -71.3°
Sets 23:12:06 0° 75° (ENE) 7,250 14.4 -71.6°
